| time (UTC) | temp F | wind direction | speed knots | gust knots | rain 1hr in | rain 24hr in | rain mn in | humidity % | barometer mb |
| 20260906214504 | 87 | 76 | 1.7 | 7.0 | 0.00 | 0.00 | 0.00 | 39 | 1017.6 |
| 20260906214002 | 87 | 76 | 2.6 | 7.0 | 0.00 | 0.00 | 0.00 | 37 | 1017.7 |
| 20260906213502 | 86 | 76 | 0.9 | 7.0 | 0.00 | 0.00 | 0.00 | 39 | 1017.7 |
| 20260906213007 | 86 | 76 | 0.0 | 6.1 | 0.00 | 0.00 | 0.00 | 40 | 1017.8 |
| 20260906212501 | 86 | 76 | 0.9 | 6.1 | 0.00 | 0.00 | 0.00 | 38 | 1017.9 |
| 20260906212003 | 86 | 76 | 1.7 | 7.0 | 0.00 | 0.00 | 0.00 | 38 | 1017.9 |
| 20260906211503 | 85 | 75 | 0.0 | 7.0 | 0.00 | 0.00 | 0.00 | 38 | 1018.0 |
| 20260906211001 | 85 | 75 | 0.0 | 3.5 | 0.00 | 0.00 | 0.00 | 39 | 1018.1 |
| 20260906210505 | 85 | 75 | 0.0 | 6.1 | 0.00 | 0.00 | 0.00 | 38 | 1018.3 |
| 20260906210005 | 86 | 75 | 2.6 | 7.0 | 0.00 | 0.00 | 0.00 | 36 | 1018.4 |
| 20260906205502 | 86 | 74 | 0.9 | 8.7 | 0.00 | 0.00 | 0.00 | 35 | 1018.4 |
| 20260906205001 | 86 | 74 | 1.7 | 8.7 | 0.00 | 0.00 | 0.00 | 37 | 1018.4 |
| 20260906204504 | 87 | 73 | 0.9 | 7.8 | 0.00 | 0.00 | 0.00 | 36 | 1018.4 |
| 20260906204005 | 87 | 73 | 4.3 | 8.7 | 0.00 | 0.00 | 0.00 | 37 | 1018.4 |
| 20260906203505 | 87 | 71 | 0.9 | 8.7 | 0.00 | 0.00 | 0.00 | 40 | 1018.6 |
| 20260906203002 | 87 | 62 | 0.0 | 7.0 | 0.00 | 0.00 | 0.00 | 40 | 1018.6 |
| 20260906202502 | 87 | 62 | 0.0 | 4.3 | 0.00 | 0.00 | 0.00 | 39 | 1018.6 |
| 20260906202005 | 87 | 62 | 0.9 | 4.3 | 0.00 | 0.00 | 0.00 | 39 | 1018.6 |
| 20260906201516 | 87 | 62 | 0.0 | 7.0 | 0.00 | 0.00 | 0.00 | 37 | 1018.7 |
| 20260906201008 | 86 | 62 | 1.7 | 7.0 | 0.00 | 0.00 | 0.00 | 41 | 1018.8 |
| 20260906200503 | 86 | 62 | 0.0 | 8.7 | 0.00 | 0.00 | 0.00 | 40 | 1018.9 |
| 20260906200008 | 86 | 61 | 2.6 | 8.7 | 0.00 | 0.00 | 0.00 | 41 | 1019.2 |
| 20260906195501 | 86 | 58 | 2.6 | 8.7 | 0.00 | 0.00 | 0.00 | 42 | 1019.3 |
| 20260906195003 | 87 | 48 | 1.7 | 6.1 | 0.00 | 0.00 | 0.00 | 41 | 1019.3 |
| 20260906194508 | 86 | 48 | 0.0 | 3.5 | 0.00 | 0.00 | 0.00 | 40 | 1019.3 |
| 20260906194004 | 86 | 48 | 0.9 | 3.5 | 0.00 | 0.00 | 0.00 | 40 | 1019.3 |
| 20260906193502 | 85 | 48 | 0.0 | 2.6 | 0.00 | 0.00 | 0.00 | 41 | 1019.3 |
| 20260906193004 | 85 | 48 | 0.0 | 3.5 | 0.00 | 0.00 | 0.00 | 40 | 1019.3 |
| 20260906192503 | 85 | 48 | 0.0 | 3.5 | 0.00 | 0.00 | 0.00 | 43 | 1019.4 |
| 20260906192009 | 85 | 48 | 0.0 | 6.1 | 0.00 | 0.00 | 0.00 | 42 | 1019.5 |
| 20260906191506 | 85 | 48 | 0.9 | 6.1 | 0.00 | 0.00 | 0.00 | 41 | 1019.6 |
| 20260906191003 | 86 | 47 | 1.7 | 6.1 | 0.00 | 0.00 | 0.00 | 40 | 1019.7 |
| 20260906190508 | 86 | 46 | 1.7 | 6.1 | 0.00 | 0.00 | 0.00 | 40 | 1019.8 |
| 20260906190003 | 86 | 43 | 1.7 | 4.3 | 0.00 | 0.00 | 0.00 | 40 | 1019.9 |
| 20260906185507 | 86 | 42 | 0.0 | 6.1 | 0.00 | 0.00 | 0.00 | 39 | 1020.0 |
| 20260906185005 | 85 | 42 | 0.9 | 6.1 | 0.00 | 0.00 | 0.00 | 40 | 1020.2 |
| 20260906184503 | 85 | 41 | 0.9 | 6.1 | 0.00 | 0.00 | 0.00 | 41 | 1020.3 |
| 20260906184002 | 85 | 40 | 0.9 | 4.3 | 0.00 | 0.00 | 0.00 | 45 | 1020.5 |
| 20260906183504 | 84 | 38 | 0.0 | 1.7 | 0.00 | 0.00 | 0.00 | 44 | 1020.5 |
| 20260906183004 | 84 | 38 | 0.0 | 2.6 | 0.00 | 0.00 | 0.00 | 42 | 1020.5 |
| 20260906182502 | 84 | 38 | 0.0 | 2.6 | 0.00 | 0.00 | 0.00 | 41 | 1020.6 |
| 20260906182004 | 84 | 38 | 0.0 | 2.6 | 0.00 | 0.00 | 0.00 | 44 | 1020.7 |
| 20260906181504 | 83 | 38 | 0.0 | 7.0 | 0.00 | 0.00 | 0.00 | 45 | 1020.8 |
| 20260906181003 | 83 | 38 | 0.0 | 7.0 | 0.00 | 0.00 | 0.00 | 44 | 1020.8 |
| 20260906180504 | 83 | 36 | 0.0 | 5.2 | 0.00 | 0.00 | 0.00 | 47 | 1020.9 |
| 20260906180004 | 83 | 32 | 0.9 | 5.2 | 0.00 | 0.00 | 0.00 | 45 | 1021.0 |
| 20260906175506 | 83 | 27 | 0.0 | 0.9 | 0.00 | 0.00 | 0.00 | 48 | 1021.1 |
| 20260906175008 | 83 | 27 | 0.0 | 2.6 | 0.00 | 0.00 | 0.00 | 47 | 1021.3 |
| 20260906174510 | 83 | 27 | 0.0 | 3.5 | 0.00 | 0.00 | 0.00 | 49 | 1021.4 |
| 20260906174004 | 82 | 27 | 0.0 | 3.5 | 0.00 | 0.00 | 0.00 | 50 | 1021.5 |
| 20260906173506 | 82 | 27 | 0.0 | 2.6 | 0.00 | 0.00 | 0.00 | 51 | 1021.5 |
| 20260906173004 | 81 | 27 | 0.0 | 3.5 | 0.00 | 0.00 | 0.00 | 52 | 1021.6 |
| 20260906172503 | 82 | 27 | 0.9 | 3.5 | 0.00 | 0.00 | 0.00 | 50 | 1021.7 |
| 20260906172005 | 82 | 24 | 0.9 | 3.5 | 0.00 | 0.00 | 0.00 | 51 | 1021.8 |
| 20260906171506 | 81 | 22 | 0.0 | 3.5 | 0.00 | 0.00 | 0.00 | 53 | 1021.9 |
| 20260906171003 | 81 | 21 | 0.0 | 6.1 | 0.00 | 0.00 | 0.00 | 54 | 1021.8 |
| 20260906170507 | 80 | 21 | 0.0 | 6.1 | 0.00 | 0.00 | 0.00 | 54 | 1021.9 |
| 20260906170005 | 80 | 360 | 0.0 | 1.7 | 0.00 | 0.00 | 0.00 | 56 | 1022.0 |
| 20260906165505 | 80 | 360 | 0.0 | 1.7 | 0.00 | 0.00 | 0.00 | 54 | 1022.1 |
| 20260906165006 | 80 | 360 | 0.0 | 2.6 | 0.00 | 0.00 | 0.00 | 56 | 1022.2 |
| 20260906164504 | 80 | 360 | 0.0 | 2.6 | 0.00 | 0.00 | 0.00 | 55 | 1022.2 |
| 20260906164008 | 79 | 360 | 0.0 | 1.7 | 0.00 | 0.00 | 0.00 | 55 | 1022.1 |
| 20260906163502 | 80 | 360 | 0.0 | 1.7 | 0.00 | 0.00 | 0.00 | 55 | 1021.9 |
| 20260906163006 | 79 | 360 | 0.0 | 1.7 | 0.00 | 0.00 | 0.00 | 54 | 1021.9 |
| 20260906162508 | 79 | 360 | 0.0 | 1.7 | 0.00 | 0.00 | 0.00 | 56 | 1021.9 |
| 20260906162011 | 79 | 360 | 0.0 | 3.5 | 0.00 | 0.00 | 0.00 | 57 | 1022.0 |
| 20260906161506 | 78 | 360 | 0.0 | 5.2 | 0.00 | 0.00 | 0.00 | 57 | 1022.0 |
| 20260906161011 | 77 | 360 | 0.0 | 4.3 | 0.00 | 0.00 | 0.00 | 59 | 1022.0 |
| 20260906160508 | 77 | 11 | 0.0 | 3.5 | 0.00 | 0.00 | 0.00 | 59 | 1022.1 |
| 20260906160005 | 76 | 9 | 0.0 | 1.7 | 0.00 | 0.00 | 0.00 | 60 | 1022.0 |
| 20260906155505 | 76 | 9 | 0.0 | 1.7 | 0.00 | 0.00 | 0.00 | 62 | 1022.1 |
| 20260906155010 | 75 | 9 | 0.0 | 2.6 | 0.00 | 0.00 | 0.00 | 61 | 1022.2 |
| 20260906154510 | 74 | 9 | 0.0 | 2.6 | 0.00 | 0.00 | 0.00 | 63 | 1022.2 |
| 20260906154005 | 74 | 10 | 0.0 | 2.6 | 0.00 | 0.00 | 0.00 | 66 | 1022.1 |
| 20260906153504 | 73 | 10 | 0.0 | 5.2 | 0.00 | 0.00 | 0.00 | 66 | 1022.1 |
| 20260906153017 | 73 | 12 | 0.0 | 5.2 | 0.00 | 0.00 | 0.00 | 65 | 1022.2 |
| 20260906152510 | 73 | 347 | 0.0 | 1.7 | 0.00 | 0.00 | 0.00 | 65 | 1022.3 |
| 20260906152003 | 73 | 347 | 0.0 | 1.7 | 0.00 | 0.00 | 0.00 | 67 | 1022.2 |
| 20260906151514 | 72 | 347 | 0.0 | 2.6 | 0.00 | 0.00 | 0.00 | 68 | 1022.2 |
| 20260906151012 | 72 | 347 | 0.0 | 2.6 | 0.00 | 0.00 | 0.00 | 69 | 1022.3 |
| 20260906150506 | 71 | 342 | 0.0 | 1.7 | 0.00 | 0.00 | 0.00 | 70 | 1022.4 |
| 20260906150012 | 70 | 342 | 0.0 | 1.7 | 0.00 | 0.00 | 0.00 | 72 | 1022.4 |
| 20260906145506 | 70 | 342 | 0.0 | 1.7 | 0.00 | 0.00 | 0.00 | 70 | 1022.4 |
| 20260906145004 | 70 | 341 | 0.0 | 1.7 | 0.00 | 0.00 | 0.00 | 71 | 1022.5 |
| 20260906144515 | 70 | 341 | 0.0 | 1.7 | 0.00 | 0.00 | 0.00 | 72 | 1022.3 |
| 20260906144007 | 69 | 341 | 0.0 | 3.5 | 0.00 | 0.00 | 0.00 | 73 | 1022.4 |
| 20260906143504 | 69 | 341 | 0.0 | 3.5 | 0.00 | 0.00 | 0.00 | 74 | 1022.2 |
| 20260906143016 | 68 | 339 | 0.0 | 3.5 | 0.00 | 0.00 | 0.00 | 76 | 1022.2 |
| 20260906142504 | 68 | 339 | 0.0 | 1.7 | 0.00 | 0.00 | 0.00 | 78 | 1022.3 |
| 20260906142005 | 67 | 340 | 0.0 | 1.7 | 0.00 | 0.00 | 0.00 | 78 | 1022.3 |
| 20260906141517 | 67 | 340 | 0.0 | 1.7 | 0.00 | 0.00 | 0.00 | 80 | 1022.2 |
| 20260906141004 | 66 | 341 | 0.0 | 1.7 | 0.00 | 0.00 | 0.00 | 82 | 1022.2 |
| 20260906140502 | 65 | 341 | 0.0 | 2.6 | 0.00 | 0.00 | 0.00 | 83 | 1022.3 |
| 20260906140017 | 64 | 341 | 0.0 | 2.6 | 0.00 | 0.00 | 0.00 | 84 | 1022.3 |
| 20260906135514 | 64 | 350 | 0.0 | 1.7 | 0.00 | 0.00 | 0.00 | 85 | 1022.3 |
| 20260906135003 | 63 | 351 | 0.0 | 0.9 | 0.00 | 0.00 | 0.00 | 85 | 1022.3 |
| 20260906134518 | 63 | 351 | 0.0 | 0.9 | 0.00 | 0.00 | 0.00 | 85 | 1022.2 |
| 20260906134013 | 63 | 351 | 0.0 | 0.9 | 0.00 | 0.00 | 0.00 | 85 | 1022.3 |
| 20260906133504 | 63 | 351 | 0.0 | 0.9 | 0.00 | 0.00 | 0.00 | 86 | 1022.2 |
| 20260906133014 | 63 | 351 | 0.0 | 0.0 | 0.00 | 0.00 | 0.00 | 85 | 1022.0 |
| 20260906132509 | 63 | 351 | 0.0 | 0.9 | 0.00 | 0.00 | 0.00 | 85 | 1022.0 |
| 20260906132005 | 63 | 351 | 0.0 | 0.9 | 0.00 | 0.00 | 0.00 | 86 | 1022.1 |
| 20260906131520 | 63 | 351 | 0.0 | 0.9 | 0.00 | 0.00 | 0.00 | 86 | 1021.9 |
| 20260906131009 | 63 | 351 | 0.0 | 0.9 | 0.00 | 0.00 | 0.00 | 86 | 1021.8 |
| 20260906130507 | 63 | 351 | 0.0 | 0.9 | 0.00 | 0.00 | 0.00 | 86 | 1021.9 |
| 20260906130027 | 62 | 351 | 0.0 | 0.9 | 0.00 | 0.00 | 0.00 | 86 | 1021.8 |
| 20260906125506 | 62 | 351 | 0.0 | 0.9 | 0.00 | 0.00 | 0.00 | 86 | 1021.8 |
| 20260906125009 | 62 | 351 | 0.0 | 0.9 | 0.00 | 0.00 | 0.00 | 86 | 1021.8 |
| 20260906124523 | 62 | 351 | 0.0 | 0.0 | 0.00 | 0.00 | 0.00 | 85 | 1021.8 |
| 20260906124004 | 62 | 351 | 0.0 | 0.0 | 0.00 | 0.00 | 0.00 | 85 | 1021.8 |
| 20260906123507 | 62 | 351 | 0.0 | 0.0 | 0.00 | 0.00 | 0.00 | 84 | 1021.7 |
| 20260906123027 | 62 | 351 | 0.0 | 0.0 | 0.00 | 0.00 | 0.00 | 84 | 1021.7 |
| 20260906122514 | 62 | 351 | 0.0 | 0.9 | 0.00 | 0.00 | 0.00 | 84 | 1021.6 |
| 20260906122004 | 63 | 351 | 0.0 | 0.9 | 0.00 | 0.00 | 0.00 | 83 | 1021.7 |
| 20260906121517 | 63 | 351 | 0.0 | 0.9 | 0.00 | 0.00 | 0.00 | 83 | 1021.8 |
| 20260906121016 | 62 | 351 | 0.0 | 0.9 | 0.00 | 0.00 | 0.00 | 83 | 1021.7 |
| 20260906120510 | 62 | 351 | 0.0 | 0.9 | 0.00 | 0.00 | 0.00 | 82 | 1021.6 |
| 20260906120017 | 62 | 351 | 0.0 | 1.7 | 0.00 | 0.00 | 0.00 | 80 | 1021.5 |
| 20260906115511 | 62 | 351 | 0.0 | 1.7 | 0.00 | 0.00 | 0.00 | 79 | 1021.6 |
| 20260906115011 | 62 | 352 | 0.0 | 1.7 | 0.00 | 0.00 | 0.00 | 79 | 1021.5 |
| 20260906114512 | 62 | 352 | 0.0 | 1.7 | 0.00 | 0.00 | 0.00 | 78 | 1021.6 |
| 20260906114010 | 62 | 352 | 0.0 | 0.9 | 0.00 | 0.00 | 0.00 | 77 | 1021.5 |
| 20260906113510 | 62 | 352 | 0.0 | 0.9 | 0.00 | 0.00 | 0.00 | 77 | 1021.6 |
| 20260906113027 | 62 | 352 | 0.0 | 1.7 | 0.00 | 0.00 | 0.00 | 77 | 1021.5 |
| 20260906112508 | 62 | 352 | 0.0 | 1.7 | 0.00 | 0.00 | 0.00 | 76 | 1021.3 |
| 20260906112012 | 62 | 352 | 0.0 | 0.9 | 0.00 | 0.00 | 0.00 | 76 | 1021.4 |
| 20260906111527 | 62 | 352 | 0.0 | 0.9 | 0.00 | 0.00 | 0.00 | 75 | 1021.4 |
| 20260906111007 | 62 | 352 | 0.0 | 0.9 | 0.00 | 0.00 | 0.00 | 75 | 1021.4 |
| 20260906110515 | 62 | 352 | 0.0 | 0.9 | 0.00 | 0.00 | 0.00 | 74 | 1021.4 |
| 20260906110029 | 63 | 352 | 0.0 | 0.9 | 0.00 | 0.00 | 0.00 | 74 | 1021.3 |
| 20260906105506 | 63 | 352 | 0.0 | 0.9 | 0.00 | 0.00 | 0.00 | 74 | 1021.3 |
| 20260906105008 | 63 | 352 | 0.0 | 0.0 | 0.00 | 0.00 | 0.00 | 73 | 1021.3 |
| 20260906104525 | 63 | 352 | 0.0 | 0.9 | 0.00 | 0.00 | 0.00 | 74 | 1021.3 |
| 20260906104009 | 63 | 352 | 0.0 | 0.9 | 0.00 | 0.00 | 0.00 | 73 | 1021.5 |
| 20260906103511 | 64 | 352 | 0.0 | 0.9 | 0.00 | 0.00 | 0.00 | 73 | 1021.2 |
| 20260906103020 | 64 | 352 | 0.0 | 0.9 | 0.00 | 0.00 | 0.00 | 73 | 1021.3 |
| 20260906102510 | 64 | 352 | 0.0 | 0.9 | 0.00 | 0.00 | 0.00 | 72 | 1021.3 |
| 20260906102012 | 64 | 352 | 0.0 | 0.9 | 0.00 | 0.00 | 0.00 | 72 | 1021.3 |
| 20260906101517 | 64 | 352 | 0.0 | 0.9 | 0.00 | 0.00 | 0.00 | 71 | 1021.3 |
| 20260906101010 | 64 | 352 | 0.0 | 0.9 | 0.00 | 0.00 | 0.00 | 70 | 1021.3 |
| 20260906100515 | 64 | 352 | 0.0 | 0.0 | 0.00 | 0.00 | 0.00 | 70 | 1021.3 |
| 20260906100033 | 65 | 352 | 0.0 | 0.0 | 0.00 | 0.00 | 0.00 | 70 | 1021.4 |
| 20260906095511 | 65 | 352 | 0.0 | 0.0 | 0.00 | 0.00 | 0.00 | 69 | 1021.4 |
| 20260906095013 | 65 | 352 | 0.0 | 0.0 | 0.00 | 0.00 | 0.00 | 69 | 1021.3 |
| 20260906094531 | 65 | 352 | 0.0 | 0.9 | 0.00 | 0.00 | 0.00 | 68 | 1021.1 |
| 20260906094010 | 65 | 352 | 0.0 | 0.9 | 0.00 | 0.00 | 0.00 | 69 | 1021.0 |
| 20260906093510 | 65 | 352 | 0.0 | 0.9 | 0.00 | 0.00 | 0.00 | 68 | 1020.9 |
| 20260906093037 | 65 | 352 | 0.0 | 0.9 | 0.00 | 0.00 | 0.00 | 68 | 1020.9 |
| 20260906092514 | 65 | 352 | 0.0 | 0.9 | 0.00 | 0.00 | 0.00 | 67 | 1020.8 |
| 20260906092012 | 66 | 352 | 0.0 | 0.9 | 0.00 | 0.00 | 0.00 | 66 | 1020.9 |
| 20260906091525 | 66 | 352 | 0.0 | 1.7 | 0.00 | 0.00 | 0.00 | 65 | 1020.8 |
| 20260906091012 | 66 | 352 | 0.0 | 1.7 | 0.00 | 0.00 | 0.00 | 64 | 1020.7 |
| 20260906090517 | 66 | 354 | 0.0 | 1.7 | 0.00 | 0.00 | 0.00 | 63 | 1020.5 |
| 20260906090024 | 67 | 355 | 0.0 | 1.7 | 0.00 | 0.00 | 0.00 | 63 | 1020.5 |
| 20260906085515 | 67 | 355 | 0.0 | 1.7 | 0.00 | 0.00 | 0.00 | 63 | 1020.6 |
| 20260906085016 | 67 | 355 | 0.0 | 2.6 | 0.00 | 0.00 | 0.00 | 62 | 1020.6 |
| 20260906084533 | 67 | 356 | 0.0 | 2.6 | 0.00 | 0.00 | 0.00 | 61 | 1020.6 |
| 20260906084014 | 67 | 352 | 0.0 | 3.5 | 0.00 | 0.00 | 0.00 | 60 | 1020.5 |
| 20260906083503 | 68 | 355 | 0.0 | 3.5 | 0.00 | 0.00 | 0.00 | 60 | 1020.6 |
| 20260906083017 | 68 | 351 | 0.9 | 3.5 | 0.00 | 0.00 | 0.00 | 59 | 1020.5 |
| 20260906082515 | 68 | 347 | 0.0 | 3.5 | 0.00 | 0.00 | 0.00 | 58 | 1020.6 |
| 20260906082004 | 68 | 341 | 0.9 | 3.5 | 0.00 | 0.00 | 0.00 | 58 | 1020.7 |
| 20260906081511 | 68 | 332 | 0.9 | 2.6 | 0.00 | 0.00 | 0.00 | 58 | 1020.7 |
| 20260906081010 | 68 | 333 | 0.0 | 1.7 | 0.00 | 0.00 | 0.00 | 57 | 1020.8 |
| 20260906080506 | 68 | 333 | 0.0 | 1.7 | 0.00 | 0.00 | 0.00 | 58 | 1020.7 |
| 20260906080009 | 69 | 333 | 0.0 | 2.6 | 0.00 | 0.00 | 0.00 | 59 | 1020.7 |
| 20260906075503 | 69 | 333 | 0.0 | 3.5 | 0.00 | 0.00 | 0.00 | 58 | 1020.7 |
| 20260906075007 | 69 | 331 | 0.0 | 3.5 | 0.00 | 0.00 | 0.00 | 57 | 1020.7 |
| 20260906074506 | 69 | 331 | 0.9 | 3.5 | 0.00 | 0.00 | 0.00 | 57 | 1020.7 |
| 20260906074003 | 69 | 350 | 0.0 | 0.9 | 0.00 | 0.00 | 0.00 | 57 | 1020.8 |
| 20260906073508 | 69 | 350 | 0.0 | 1.7 | 0.00 | 0.00 | 0.00 | 57 | 1020.9 |
| 20260906073027 | 70 | 350 | 0.0 | 2.6 | 0.00 | 0.00 | 0.00 | 56 | 1020.8 |
| 20260906072503 | 70 | 350 | 0.0 | 2.6 | 0.00 | 0.00 | 0.00 | 56 | 1020.7 |
| 20260906072008 | 70 | 348 | 0.9 | 3.5 | 0.00 | 0.00 | 0.00 | 55 | 1020.6 |
| 20260906071524 | 70 | 347 | 0.9 | 3.5 | 0.00 | 0.00 | 0.00 | 54 | 1020.5 |
| 20260906071004 | 70 | 342 | 0.0 | 3.5 | 0.00 | 0.00 | 0.00 | 53 | 1020.6 |
| 20260906070508 | 70 | 339 | 0.0 | 2.6 | 0.00 | 0.00 | 0.00 | 53 | 1020.5 |
| 20260906070020 | 70 | 339 | 0.0 | 3.5 | 0.00 | 0.00 | 0.00 | 52 | 1020.7 |
| 20260906065505 | 70 | 336 | 0.9 | 3.5 | 0.00 | 0.00 | 0.00 | 52 | 1020.7 |
| 20260906065004 | 69 | 330 | 0.0 | 1.7 | 0.00 | 0.00 | 0.00 | 51 | 1020.8 |
| 20260906064517 | 69 | 329 | 0.0 | 4.3 | 0.00 | 0.00 | 0.00 | 52 | 1020.9 |
| 20260906064006 | 69 | 329 | 0.0 | 4.3 | 0.00 | 0.00 | 0.00 | 52 | 1020.7 |
| 20260906063510 | 69 | 329 | 1.7 | 4.3 | 0.00 | 0.00 | 0.00 | 52 | 1020.8 |
| 20260906063010 | 70 | 333 | 0.0 | 1.7 | 0.00 | 0.00 | 0.00 | 52 | 1021.3 |
| 20260906062508 | 70 | 333 | 0.0 | 0.9 | 0.00 | 0.00 | 0.00 | 52 | 1021.3 |
| 20260906062011 | 70 | 333 | 0.0 | 0.9 | 0.00 | 0.00 | 0.00 | 51 | 1021.3 |
| 20260906061537 | 71 | 333 | 0.0 | 1.7 | 0.00 | 0.00 | 0.00 | 50 | 1021.2 |
| 20260906061006 | 71 | 333 | 0.0 | 1.7 | 0.00 | 0.00 | 0.00 | 50 | 1021.2 |
| 20260906060514 | 71 | 333 | 0.0 | 1.7 | 0.00 | 0.00 | 0.00 | 50 | 1020.9 |
| 20260906060028 | 72 | 333 | 0.0 | 0.9 | 0.00 | 0.00 | 0.00 | 49 | 1021.1 |
| 20260906055503 | 72 | 333 | 0.0 | 3.5 | 0.00 | 0.00 | 0.00 | 49 | 1021.1 |
| 20260906055008 | 72 | 333 | 0.0 | 3.5 | 0.00 | 0.00 | 0.00 | 47 | 1021.0 |
| 20260906054528 | 72 | 336 | 0.0 | 2.6 | 0.00 | 0.00 | 0.00 | 47 | 1020.9 |
| 20260906054004 | 72 | 344 | 0.0 | 2.6 | 0.00 | 0.00 | 0.00 | 46 | 1020.8 |
| 20260906053506 | 72 | 344 | 0.0 | 2.6 | 0.00 | 0.00 | 0.00 | 46 | 1020.9 |
| 20260906053022 | 72 | 4 | 0.0 | 1.7 | 0.00 | 0.00 | 0.00 | 46 | 1021.0 |
| 20260906052508 | 72 | 175 | 0.0 | 1.7 | 0.00 | 0.00 | 0.00 | 46 | 1021.0 |
| 20260906052006 | 72 | 175 | 0.0 | 1.7 | 0.00 | 0.00 | 0.00 | 47 | 1021.0 |
| 20260906051513 | 72 | 176 | 0.0 | 0.0 | 0.00 | 0.00 | 0.00 | 46 | 1021.0 |
| 20260906051008 | 73 | 176 | 0.0 | 2.6 | 0.00 | 0.00 | 0.00 | 47 | 1021.1 |
| 20260906050514 | 73 | 176 | 0.0 | 3.5 | 0.00 | 0.00 | 0.00 | 47 | 1021.1 |
| 20260906050013 | 73 | 172 | 0.9 | 6.1 | 0.00 | 0.00 | 0.00 | 47 | 1021.0 |
| 20260906045507 | 73 | 150 | 1.7 | 5.2 | 0.00 | 0.00 | 0.00 | 47 | 1020.9 |
| 20260906045015 | 73 | 327 | 0.0 | 0.0 | 0.00 | 0.00 | 0.00 | 46 | 1020.5 |
| 20260906044534 | 73 | 327 | 0.0 | 0.9 | 0.00 | 0.00 | 0.00 | 45 | 1020.3 |
| 20260906044013 | 73 | 327 | 0.0 | 1.7 | 0.00 | 0.00 | 0.00 | 45 | 1020.1 |
| 20260906043512 | 73 | 327 | 0.0 | 1.7 | 0.00 | 0.00 | 0.00 | 44 | 1020.1 |
| 20260906043028 | 74 | 327 | 0.0 | 1.7 | 0.00 | 0.00 | 0.00 | 44 | 1020.1 |
| 20260906042505 | 74 | 327 | 0.0 | 1.7 | 0.00 | 0.00 | 0.00 | 44 | 1020.2 |
| 20260906042008 | 74 | 327 | 0.0 | 1.7 | 0.00 | 0.00 | 0.00 | 43 | 1020.2 |
| 20260906041513 | 75 | 327 | 0.0 | 1.7 | 0.00 | 0.00 | 0.00 | 42 | 1020.1 |
| 20260906041012 | 75 | 327 | 0.0 | 3.5 | 0.00 | 0.00 | 0.00 | 41 | 1019.9 |
| 20260906040508 | 75 | 327 | 0.0 | 6.1 | 0.00 | 0.00 | 0.00 | 41 | 1019.9 |
| 20260906040011 | 76 | 327 | 2.6 | 6.1 | 0.00 | 0.00 | 0.00 | 40 | 1019.8 |
| 20260906035513 | 76 | 329 | 2.6 | 5.2 | 0.00 | 0.00 | 0.00 | 40 | 1019.7 |
| 20260906035014 | 76 | 331 | 1.7 | 5.2 | 0.00 | 0.00 | 0.00 | 39 | 1019.8 |
| 20260906034524 | 77 | 334 | 1.7 | 5.2 | 0.00 | 0.00 | 0.00 | 39 | 1019.9 |
| 20260906034012 | 77 | 342 | 0.0 | 3.5 | 0.00 | 0.00 | 0.00 | 38 | 1020.1 |
| 20260906033516 | 77 | 342 | 0.9 | 4.3 | 0.00 | 0.00 | 0.00 | 38 | 1020.0 |
| 20260906033018 | 77 | 339 | 1.7 | 4.3 | 0.00 | 0.00 | 0.00 | 36 | 1020.0 |
| 20260906032510 | 78 | 324 | 0.0 | 2.6 | 0.00 | 0.00 | 0.00 | 36 | 1020.0 |
| 20260906032015 | 78 | 324 | 0.9 | 3.5 | 0.00 | 0.00 | 0.00 | 35 | 1019.9 |
| 20260906031516 | 78 | 324 | 0.9 | 3.5 | 0.00 | 0.00 | 0.00 | 34 | 1019.8 |
| 20260906031008 | 79 | 325 | 0.0 | 5.2 | 0.00 | 0.00 | 0.00 | 35 | 1019.6 |
| 20260906030515 | 79 | 325 | 0.0 | 6.1 | 0.00 | 0.00 | 0.00 | 34 | 1019.7 |
| 20260906030019 | 79 | 324 | 2.6 | 6.1 | 0.00 | 0.00 | 0.00 | 34 | 1019.5 |
| 20260906025515 | 79 | 335 | 1.7 | 4.3 | 0.00 | 0.00 | 0.00 | 34 | 1019.5 |
| 20260906025010 | 79 | 336 | 0.0 | 4.3 | 0.00 | 0.00 | 0.00 | 34 | 1019.6 |
| 20260906024521 | 79 | 334 | 0.9 | 4.3 | 0.00 | 0.00 | 0.00 | 34 | 1019.6 |
| 20260906024013 | 79 | 332 | 0.9 | 6.1 | 0.00 | 0.00 | 0.00 | 34 | 1019.4 |
| 20260906023510 | 78 | 331 | 0.9 | 6.1 | 0.00 | 0.00 | 0.00 | 34 | 1019.3 |
| 20260906023024 | 78 | 331 | 3.5 | 8.7 | 0.00 | 0.00 | 0.00 | 35 | 1019.3 |
| 20260906022516 | 78 | 328 | 2.6 | 8.7 | 0.00 | 0.00 | 0.00 | 35 | 1019.1 |
| 20260906022025 | 78 | 312 | 3.5 | 7.8 | 0.00 | 0.00 | 0.00 | 35 | 1019.1 |
| 20260906021518 | 78 | 318 | 0.9 | 7.0 | 0.00 | 0.00 | 0.00 | 35 | 1019.2 |
| 20260906021003 | 78 | 305 | 1.7 | 7.0 | 0.00 | 0.00 | 0.00 | 35 | 1019.1 |
| 20260906020506 | 79 | 285 | 0.9 | 6.1 | 0.00 | 0.00 | 0.00 | 35 | 1019.0 |
| 20260906020022 | 79 | 303 | 1.7 | 6.1 | 0.00 | 0.00 | 0.00 | 34 | 1018.9 |
| 20260906015505 | 79 | 306 | 2.6 | 7.0 | 0.00 | 0.00 | 0.00 | 34 | 1018.8 |
| 20260906015005 | 79 | 318 | 2.6 | 7.0 | 0.00 | 0.00 | 0.00 | 33 | 1018.6 |
| 20260906014522 | 79 | 318 | 1.7 | 6.1 | 0.00 | 0.00 | 0.00 | 33 | 1018.6 |
| 20260906014004 | 80 | 325 | 2.6 | 7.8 | 0.00 | 0.00 | 0.00 | 33 | 1018.6 |
| 20260906013504 | 80 | 331 | 3.5 | 9.6 | 0.00 | 0.00 | 0.00 | 33 | 1018.6 |
| 20260906013010 | 80 | 328 | 3.5 | 10.4 | 0.00 | 0.00 | 0.00 | 33 | 1018.5 |
| 20260906012503 | 80 | 334 | 6.1 | 10.4 | 0.00 | 0.00 | 0.00 | 33 | 1018.5 |
| 20260906012012 | 81 | 332 | 4.3 | 9.6 | 0.00 | 0.00 | 0.00 | 32 | 1018.6 |
| 20260906011523 | 81 | 319 | 2.6 | 10.4 | 0.00 | 0.00 | 0.00 | 32 | 1018.6 |
| 20260906011006 | 81 | 312 | 4.3 | 10.4 | 0.00 | 0.00 | 0.00 | 32 | 1018.6 |
| 20260906010510 | 82 | 272 | 3.5 | 8.7 | 0.00 | 0.00 | 0.00 | 32 | 1018.7 |
| 20260906010010 | 82 | 270 | 1.7 | 10.4 | 0.00 | 0.00 | 0.00 | 32 | 1018.6 |
| 20260906005503 | 83 | 306 | 4.3 | 13.0 | 0.00 | 0.00 | 0.00 | 31 | 1018.7 |
| 20260906005012 | 83 | 265 | 4.3 | 13.0 | 0.00 | 0.00 | 0.00 | 30 | 1018.6 |
| 20260906004504 | 84 | 329 | 7.0 | 13.0 | 0.00 | 0.00 | 0.00 | 29 | 1018.6 |
| 20260906004003 | 84 | 326 | 5.2 | 9.6 | 0.00 | 0.00 | 0.00 | 28 | 1018.8 |
| 20260906003508 | 85 | 304 | 3.5 | 9.6 | 0.00 | 0.00 | 0.00 | 28 | 1018.9 |
| 20260906003015 | 85 | 323 | 3.5 | 10.4 | 0.00 | 0.00 | 0.00 | 27 | 1018.8 |
| 20260906002503 | 85 | 280 | 4.3 | 10.4 | 0.00 | 0.00 | 0.00 | 27 | 1018.8 |
| 20260906002006 | 86 | 285 | 4.3 | 11.3 | 0.00 | 0.00 | 0.00 | 27 | 1018.8 |
| 20260906001508 | 86 | 270 | 5.2 | 14.8 | 0.00 | 0.00 | 0.00 | 26 | 1018.7 |
| 20260906001010 | 86 | 295 | 7.0 | 14.8 | 0.00 | 0.00 | 0.00 | 25 | 1018.6 |
| 20260906000504 | 87 | 302 | 4.3 | 14.8 | 0.00 | 0.00 | 0.00 | 25 | 1018.6 |
| 20260906000012 | 87 | 319 | 7.8 | 14.8 | 0.00 | 0.00 | 0.00 | 25 | 1018.6 |
| 20260905235508 | 87 | 285 | 2.6 | 7.0 | 0.00 | 0.00 | 0.00 | 25 | 1018.5 |
| 20260905235012 | 87 | 294 | 0.9 | 3.5 | 0.00 | 0.00 | 0.00 | 25 | 1018.4 |
| 20260905234513 | 88 | 302 | 0.0 | 1.7 | 0.00 | 0.00 | 0.00 | 25 | 1018.5 |
| 20260905234008 | 88 | 304 | 0.0 | 3.5 | 0.00 | 0.00 | 0.00 | 25 | 1018.4 |
| 20260905233516 | 88 | 304 | 0.0 | 3.5 | 0.00 | 0.00 | 0.00 | 25 | 1018.4 |
| 20260905233016 | 88 | 349 | 0.0 | 0.9 | 0.00 | 0.00 | 0.00 | 26 | 1018.4 |
| 20260905232507 | 88 | 349 | 0.0 | 1.7 | 0.00 | 0.00 | 0.00 | 25 | 1018.4 |
| 20260905232016 | 88 | 349 | 0.0 | 1.7 | 0.00 | 0.00 | 0.00 | 25 | 1018.3 |
| 20260905231514 | 89 | 349 | 0.0 | 0.0 | 0.00 | 0.00 | 0.00 | 25 | 1018.2 |
| 20260905231006 | 89 | 349 | 0.0 | 0.0 | 0.00 | 0.00 | 0.00 | 24 | 1018.2 |
| 20260905230508 | 89 | 349 | 0.0 | 0.0 | 0.00 | 0.00 | 0.00 | 23 | 1018.2 |
| 20260905230010 | 89 | 349 | 0.0 | 0.0 | 0.00 | 0.00 | 0.00 | 23 | 1018.1 |
| 20260905225511 | 89 | 349 | 0.0 | 0.0 | 0.00 | 0.00 | 0.00 | 22 | 1018.1 |
| 20260905225009 | 89 | 349 | 0.0 | 0.0 | 0.00 | 0.00 | 0.00 | 21 | 1018.0 |
| 20260905224521 | 89 | 349 | 0.0 | 0.0 | 0.00 | 0.00 | 0.00 | 21 | 1018.1 |
| 20260905224010 | 89 | 349 | 0.0 | 0.0 | 0.00 | 0.00 | 0.00 | 23 | 1018.1 |
| 20260905223505 | 89 | 349 | 0.0 | 0.0 | 0.00 | 0.00 | 0.00 | 22 | 1018.1 |
| 20260905223015 | 90 | 349 | 0.0 | 1.7 | 0.00 | 0.00 | 0.00 | 22 | 1018.1 |
| 20260905222517 | 90 | 349 | 0.0 | 1.7 | 0.00 | 0.00 | 0.00 | 21 | 1018.0 |
| 20260905222013 | 90 | 349 | 0.0 | 1.7 | 0.00 | 0.00 | 0.00 | 22 | 1018.1 |
| 20260905221530 | 91 | 349 | 0.0 | 2.6 | 0.00 | 0.00 | 0.00 | 22 | 1018.0 |
| 20260905221010 | 91 | 349 | 0.0 | 4.3 | 0.00 | 0.00 | 0.00 | 20 | 1018.1 |
| 20260905220511 | 92 | 349 | 1.7 | 4.3 | 0.00 | 0.00 | 0.00 | 20 | 1018.1 |
| 20260905220013 | 92 | 342 | 0.9 | 5.2 | 0.00 | 0.00 | 0.00 | 21 | 1018.1 |
| 20260905215511 | 92 | 339 | 1.7 | 8.7 | 0.00 | 0.00 | 0.00 | 21 | 1018.2 |
| 20260905215013 | 92 | 20 | 1.7 | 8.7 | 0.00 | 0.00 | 0.00 | 20 | 1018.2 |